Starlink 2699

operational
NORAD ID: 48433 Int'l Des: 2021-040 Owner: SPXS Country: US Constellation: starlink
LEOCIRCULARSTARLINK_TYPE

Über Starlink 2699

Beschreibung wird geladen...

Live-Position

3D-Globus wird geladen...

Nächste Überflüge

Höhenverlauf

Altitude vs Time

uPlot chart will show altitude changes over time

Zweizeiliger Elementsatz

1 48433U 21040F 26034.23177138 .00002409 00000-0 18055-3 0 9993
2 48433 53.0538 306.5843 0001512 102.6266 257.4892 15.06409616261845
Epoch: 3. Feb. 2026 • Age: 50 hours

Aktueller Status

Höhe 563.0 km
Geschwindigkeit 7.58 km/s
Subsatellitenpunkt -44.76°S, 90.33°W
Startdatum 9. Mai 2021
Alter 4.7 years
Typ internet

Technische Details

Klassifizierung Payload
Masse 260.00 kg
Trockenmasse 248.00 kg
Gesamtmasse 260.00 kg
Länge 0.20 m
Durchmesser 2.80 m
Spannweite 9.00 m
Form Box + pan
Hersteller SPXS
Bus-Typ Starlink
Phasenstatus In Orbit
Besitzer/Staat SPXS/US

Große Konstellationen

Loading constellations...